K4FB Weather Reports


Display with metric or nautical units.
time (UTC)temp
F
wind
direction
speed
MPH
gust
MPH
rain 1hr
in
rain 24hr
in
rain mn
in
humidity
%
barometer
mb
20260903220007 76 45 0.0 1.0 1.62 1.69 1.62 90 1014.7
20260903215504 76 39 0.0 1.0 1.54 1.62 1.54 90 1014.4
20260903215010 75 338 0.0 1.0 1.32 1.41 1.32 88 1014.5
20260903214516 76 75 0.0 2.0 1.22 1.31 1.22 88 1014.9
20260903214005 76 66 0.0 4.0 1.05 1.15 1.05 87 1014.8
20260903213505 76 248 0.0 12.0 0.93 1.03 0.93 86 1014.6
20260903213008 77 219 4.0 16.0 0.75 0.85 0.75 85 1014.3
20260903212505 78 205 10.0 16.0 0.52 0.62 0.52 81 1014.4
20260903212005 80 198 6.0 22.0 0.22 0.34 0.22 79 1014.5
20260903211518 83 194 10.0 25.0 0.01 0.19 0.01 74 1014.3
20260903211008 88 167 10.0 25.0 0.00 0.31 0.00 70 1013.7
20260903210505 90 150 5.0 12.0 0.00 0.55 0.00 72 1013.7
20260903210016 90 76 3.0 12.0 0.00 0.89 0.00 71 1013.5
20260903205512 91 75 4.0 9.0 0.00 1.13 0.00 70 1012.9
20260903205004 92 97 1.0 6.0 0.00 1.13 0.00 70 1012.6
20260903204512 92 54 1.0 9.0 0.00 1.13 0.00 69 1012.7
20260903204007 93 53 2.0 11.0 0.00 1.13 0.00 68 1012.9
20260903203503 94 52 4.0 11.0 0.00 1.13 0.00 68 1013.2
20260903203007 94 60 5.0 11.0 0.00 1.13 0.00 68 1013.4
20260903202503 93 30 4.0 14.0 0.00 1.13 0.00 67 1013.4
20260903202004 94 90 5.0 14.0 0.00 1.13 0.00 67 1013.4
20260903201512 93 24 3.0 10.0 0.00 1.13 0.00 68 1013.4
20260903201004 93 24 4.0 11.0 0.00 1.13 0.00 68 1013.3
20260903200506 94 45 4.0 11.0 0.00 1.13 0.00 67 1013.4
20260903200021 94 55 3.0 10.0 0.00 1.13 0.00 68 1013.4
20260903195504 94 49 3.0 10.0 0.00 1.13 0.00 67 1013.7
20260903195006 95 30 2.0 8.0 0.00 1.13 0.00 65 1013.8
20260903194527 95 26 1.0 12.0 0.00 1.13 0.00 65 1013.7
20260903194014 96 71 5.0 12.0 0.00 1.13 0.00 63 1013.7
20260903193504 97 64 4.0 10.0 0.00 1.13 0.00 61 1013.9
20260903193025 98 47 0.0 3.0 0.00 1.13 0.00 60 1014.1
20260903192516 97 181 0.0 1.0 0.00 1.13 0.00 64 1014.1
20260903192003 96 165 0.0 1.0 0.00 1.13 0.00 61 1014.2
20260903191511 96 205 0.0 2.0 0.00 1.13 0.00 60 1014.3
20260903191005 95 207 0.0 4.0 0.00 1.13 0.00 59 1014.3
20260903190506 96 195 0.0 6.0 0.00 1.13 0.00 64 1014.4
20260903190015 95 201 0.0 6.0 0.00 1.13 0.00 64 1014.4
20260903185507 95 163 0.0 6.0 0.00 1.13 0.00 65 1014.4
20260903185010 95 223 2.0 6.0 0.00 1.13 0.00 63 1014.4
20260903184509 95 155 0.0 5.0 0.00 1.13 0.00 65 1014.4
20260903184007 95 186 1.0 5.0 0.00 1.13 0.00 65 1014.2
20260903183514 95 213 0.0 3.0 0.00 1.13 0.00 66 1014.3
20260903183030 95 149 0.0 6.0 0.00 1.13 0.00 64 1014.4
20260903182507 95 142 1.0 6.0 0.00 1.13 0.00 66 1014.4
20260903182007 94 194 0.0 5.0 0.00 1.13 0.00 69 1014.4
20260903181527 94 183 1.0 4.0 0.00 1.13 0.00 70 1014.5
20260903181016 94 213 0.0 7.0 0.00 1.13 0.00 70 1014.5
20260903180504 93 188 1.0 7.0 0.00 1.13 0.00 69 1014.6
20260903180035 93 79 0.0 7.0 0.00 1.13 0.00 67 1014.9
20260903175505 93 195 0.0 7.0 0.00 1.13 0.00 71 1015.0
20260903175003 92 205 0.0 7.0 0.00 1.13 0.00 69 1015.0
20260903174520 92 181 0.0 7.0 0.00 1.13 0.00 70 1015.1
20260903174011 92 197 0.0 2.0 0.00 1.13 0.00 71 1015.0
20260903173511 92 203 0.0 5.0 0.00 1.13 0.00 68 1015.1
20260903173018 92 198 1.0 5.0 0.00 1.13 0.00 70 1015.3
20260903172510 92 105 0.0 4.0 0.00 1.13 0.00 70 1015.3
20260903172013 92 103 0.0 3.0 0.00 1.13 0.00 71 1015.4
20260903171513 92 173 0.0 2.0 0.00 1.13 0.00 69 1015.5
20260903171007 93 184 0.0 3.0 0.00 1.13 0.00 68 1015.5
20260903170515 93 112 0.0 3.0 0.00 1.13 0.00 71 1015.5
20260903165504 92 97 0.0 7.0 0.00 1.13 0.00 70 1015.5
20260903165007 92 97 0.0 7.0 0.00 1.13 0.00 73 1015.5
20260903164518 92 195 0.0 2.0 0.00 1.13 0.00 74 1015.7
20260903164007 92 141 0.0 2.0 0.00 1.13 0.00 74 1015.8
20260903163510 92 140 0.0 1.0 0.00 1.13 0.00 75 1015.8
20260903163023 91 75 0.0 2.0 0.00 1.13 0.00 74 1016.0
20260903162511 91 196 0.0 2.0 0.00 1.13 0.00 76 1015.9
20260903162007 91 161 0.0 2.0 0.00 1.13 0.00 77 1016.1
20260903161529 90 83 0.0 2.0 0.00 1.13 0.00 77 1016.2
20260903161011 90 103 0.0 2.0 0.00 1.13 0.00 76 1016.1
20260903160517 89 99 0.0 1.0 0.00 1.13 0.00 77 1016.2
20260903160030 89 122 0.0 1.0 0.00 1.13 0.00 79 1016.4
20260903155512 88 23 0.0 1.0 0.00 1.13 0.00 78 1016.3
20260903155015 88 166 0.0 1.0 0.00 1.13 0.00 80 1016.3
20260903154516 88 180 0.0 0.0 0.00 1.13 0.00 80 1016.4
20260903154010 87 171 0.0 0.0 0.00 1.13 0.00 81 1016.4
20260903153510 87 130 0.0 0.0 0.00 1.13 0.00 81 1016.3
20260903153020 86 111 0.0 0.0 0.00 1.13 0.00 82 1016.3
20260903152510 86 107 0.0 1.0 0.00 1.13 0.00 83 1016.4
20260903152012 86 44 0.0 1.0 0.00 1.13 0.00 83 1016.5
20260903151527 85 146 0.0 0.0 0.00 1.13 0.00 84 1016.5
20260903151006 85 79 0.0 0.0 0.00 1.13 0.00 83 1016.4
20260903150513 85 175 0.0 0.0 0.00 1.13 0.00 84 1016.6
20260903150038 85 178 0.0 0.0 0.00 1.13 0.00 84 1016.6
20260903145517 85 164 0.0 0.0 0.00 1.13 0.00 85 1016.5
20260903145008 85 204 0.0 0.0 0.00 1.13 0.00 87 1016.3
20260903144530 84 133 0.0 0.0 0.00 1.13 0.00 87 1016.3
20260903144015 84 72 0.0 0.0 0.00 1.13 0.00 88 1016.5
20260903143507 84 61 0.0 0.0 0.00 1.13 0.00 88 1016.5
20260903143018 83 84 0.0 0.0 0.00 1.13 0.00 89 1016.4
20260903142507 83 97 0.0 0.0 0.00 1.13 0.00 89 1016.4
20260903142012 83 76 0.0 2.0 0.00 1.13 0.00 89 1016.4
20260903141526 82 68 0.0 2.0 0.00 1.13 0.00 91 1016.4
20260903141010 82 103 0.0 1.0 0.00 1.13 0.00 91 1016.4
20260903140514 81 130 0.0 1.0 0.00 1.13 0.00 91 1016.3
20260903140022 81 171 0.0 1.0 0.00 1.13 0.00 91 1016.4
20260903135511 81 142 0.0 1.0 0.00 1.13 0.00 92 1016.5
20260903135013 81 82 0.0 1.0 0.00 1.13 0.00 92 1016.4
20260903134538 81 92 0.0 1.0 0.00 1.13 0.00 92 1016.4
20260903134011 81 78 0.0 0.0 0.00 1.13 0.00 93 1016.3
20260903133520 80 98 0.0 0.0 0.00 1.13 0.00 93 1016.3
20260903133031 80 55 0.0 0.0 0.00 1.13 0.00 94 1016.1
20260903132519 80 97 0.0 1.0 0.00 1.13 0.00 94 1016.2
20260903132012 80 92 0.0 1.0 0.00 1.13 0.00 94 1016.2
20260903131521 80 120 0.0 1.0 0.00 1.13 0.00 95 1016.1
20260903131012 79 130 0.0 0.0 0.00 1.13 0.00 95 1016.1
20260903130511 79 116 0.0 1.0 0.00 1.13 0.00 95 1016.1
20260903130004 79 96 0.0 1.0 0.00 1.13 0.00 95 1016.0
20260903125504 79 146 0.0 0.0 0.00 1.13 0.00 95 1015.9
20260903125003 79 161 0.0 0.0 0.00 1.13 0.00 95 1015.9
20260903124504 79 161 0.0 0.0 0.00 1.13 0.00 95 1015.9
20260903124003 79 161 0.0 0.0 0.00 1.13 0.00 95 1016.0
20260903123503 79 165 0.0 0.0 0.00 1.13 0.00 95 1016.0
20260903123028 78 165 0.0 0.0 0.00 1.13 0.00 95 1016.0
20260903122504 78 161 0.0 0.0 0.00 1.13 0.00 95 1016.0
20260903122006 78 161 0.0 0.0 0.00 1.13 0.00 95 1015.9
20260903121520 78 154 0.0 0.0 0.00 1.13 0.00 95 1015.9
20260903121010 78 200 0.0 0.0 0.00 1.13 0.00 95 1015.9
20260903120504 78 200 0.0 0.0 0.00 1.13 0.00 95 1015.8
20260903120017 78 200 0.0 0.0 0.00 1.13 0.00 1015.6
20260903115508 78 200 0.0 0.0 0.00 1.13 0.00 1015.4
20260903115003 78 200 0.0 0.0 0.00 1.13 0.00 95 1015.4
20260903114508 78 236 0.0 0.0 0.00 1.13 0.00 95 1015.3
20260903114004 77 266 0.0 0.0 0.00 1.13 0.00 95 1015.2
20260903113502 77 360 0.0 0.0 0.00 1.13 0.00 95 1015.1
20260903113020 77 360 0.0 0.0 0.00 1.13 0.00 95 1015.0
20260903112504 77 360 0.0 0.0 0.00 1.13 0.00 95 1015.0
20260903112005 77 360 0.0 0.0 0.00 1.13 0.00 95 1014.9
20260903111509 77 360 0.0 0.0 0.00 1.13 0.00 95 1014.9
20260903111004 77 360 0.0 0.0 0.00 1.13 0.00 95 1014.8
20260903110507 77 360 0.0 0.0 0.00 1.13 0.00 95 1014.8
20260903110028 77 352 0.0 0.0 0.00 1.13 0.00 95 1014.6
20260903105504 77 352 0.0 0.0 0.00 1.13 0.00 95 1014.6
20260903105007 77 352 0.0 0.0 0.00 1.13 0.00 94 1014.4
20260903104530 77 352 0.0 0.0 0.00 1.13 0.00 95 1014.5
20260903104011 77 352 0.0 0.0 0.00 1.13 0.00 95 1014.4
20260903103503 77 352 0.0 0.0 0.00 1.13 0.00 95 1014.4
20260903103008 78 24 0.0 0.0 0.00 1.13 0.00 95 1014.3
20260903102504 78 66 0.0 0.0 0.00 1.13 0.00 95 1014.2
20260903102003 78 62 0.0 0.0 0.00 1.13 0.00 95 1014.1
20260903101516 77 61 0.0 0.0 0.00 1.13 0.00 95 1014.2
20260903101007 77 78 0.0 0.0 0.00 1.13 0.00 95 1014.2
20260903100507 77 68 0.0 0.0 0.00 1.13 0.00 95 1014.2
20260903100023 77 59 0.0 0.0 0.00 1.13 0.00 95 1014.1
20260903095507 77 80 0.0 1.0 0.00 1.13 0.00 95 1014.3
20260903095011 77 63 0.0 1.0 0.00 1.13 0.00 95 1014.3
20260903094508 77 67 0.0 1.0 0.00 1.13 0.00 95 1014.2
20260903094014 77 63 0.0 1.0 0.00 1.13 0.00 95 1014.2
20260903093512 77 105 0.0 1.0 0.00 1.13 0.00 95 1014.2
20260903093048 77 51 0.0 1.0 0.00 1.13 0.00 95 1014.2
20260903092504 77 112 0.0 1.0 0.00 1.13 0.00 95 1014.3
20260903092004 77 40 0.0 0.0 0.00 1.13 0.00 95 1014.3
20260903091509 77 72 0.0 0.0 0.00 1.13 0.00 95 1014.2
20260903091005 77 73 0.0 0.0 0.00 1.13 0.00 94 1014.1
20260903090510 77 88 0.0 0.0 0.00 1.13 0.00 94 1014.1
20260903090026 77 104 0.0 0.0 0.00 1.13 0.00 94 1014.1
20260903085508 77 104 0.0 0.0 0.00 1.13 0.00 94 1014.1
20260903085007 77 97 0.0 0.0 0.00 1.13 0.00 94 1014.1
20260903084529 77 96 0.0 0.0 0.00 1.13 0.00 94 1014.1
20260903084013 77 96 0.0 0.0 0.00 1.13 0.00 94 1014.1
20260903083512 77 103 0.0 0.0 0.00 1.13 0.00 94 1014.0
20260903083019 77 108 0.0 0.0 0.00 1.13 0.00 1014.1
20260903082509 77 89 0.0 0.0 0.00 1.13 0.00 94 1014.1
20260903082017 77 104 0.0 0.0 0.00 1.13 0.00 94 1014.1
20260903081516 77 96 0.0 0.0 0.00 1.13 0.00 94 1014.2
20260903081003 77 67 0.0 0.0 0.00 1.13 0.00 94 1014.3
20260903080504 77 88 0.0 0.0 0.00 1.13 0.00 94 1014.3
20260903080013 77 61 0.0 0.0 0.00 1.13 0.00 94 1014.3
20260903075508 77 77 0.0 0.0 0.00 1.13 0.00 94 1014.3
20260903075005 77 69 0.0 0.0 0.00 1.13 0.00 94 1014.3
20260903074524 77 88 0.0 0.0 0.00 1.13 0.00 94 1014.3
20260903074004 77 88 0.0 0.0 0.00 1.13 0.00 94 1014.3
20260903073508 77 88 0.0 0.0 0.00 1.13 0.00 94 1014.4
20260903073029 77 88 0.0 0.0 0.00 1.13 0.00 94 1014.5
20260903072512 77 88 0.0 0.0 0.00 1.13 0.00 94 1014.5
20260903072007 77 88 0.0 0.0 0.00 1.13 0.00 1014.4
20260903071527 77 88 0.0 0.0 0.00 1.13 0.00 94 1014.5
20260903071015 77 88 0.0 0.0 0.00 1.13 0.00 94 1014.6
20260903070506 78 88 0.0 0.0 0.00 1.13 0.00 94 1014.6
20260903070028 78 88 0.0 0.0 0.00 1.13 0.00 94 1014.7
20260903065504 78 88 0.0 0.0 0.00 1.13 0.00 94 1014.7
20260903065008 78 86 0.0 0.0 0.00 1.13 0.00 94 1014.6
20260903064515 78 85 0.0 0.0 0.00 1.13 0.00 94 1014.7
20260903064008 78 97 0.0 0.0 0.00 1.13 0.00 94 1014.8
20260903063508 78 98 0.0 0.0 0.00 1.13 0.00 94 1014.8
20260903063026 78 98 0.0 0.0 0.00 1.13 0.00 94 1014.7
20260903062512 78 97 0.0 0.0 0.00 1.13 0.00 94 1014.7
20260903062012 78 112 0.0 0.0 0.00 1.13 0.00 94 1014.9
20260903061529 78 101 0.0 1.0 0.00 1.13 0.00 94 1014.9
20260903061011 78 98 0.0 1.0 0.00 1.13 0.00 94 1014.7
20260903060516 78 84 0.0 0.0 0.00 1.13 0.00 94 1014.8
20260903060034 78 53 0.0 0.0 0.00 1.13 0.00 94 1014.9
20260903055518 78 75 0.0 0.0 0.00 1.13 0.00 94 1014.9
20260903055013 78 75 0.0 0.0 0.00 1.13 0.00 1014.9
20260903054523 78 75 0.0 0.0 0.00 1.13 0.00 1015.0
20260903054007 78 77 0.0 0.0 0.00 1.13 0.00 94 1014.9
20260903053506 78 77 0.0 0.0 0.00 1.13 0.00 94 1015.0
20260903053024 78 77 0.0 0.0 0.00 1.13 0.00 94 1015.1
20260903052511 78 77 0.0 0.0 0.00 1.13 0.00 94 1015.2
20260903052014 78 78 0.0 0.0 0.00 1.13 0.00 94 1015.4
20260903051520 78 78 0.0 0.0 0.00 1.13 0.00 94 1015.4
20260903051025 78 86 0.0 0.0 0.00 1.13 0.00 94 1015.3
20260903050519 78 87 0.0 0.0 0.00 1.13 0.00 94 1015.4
20260903050019 78 97 0.0 0.0 0.00 1.13 0.00 94 1015.4
20260903045511 78 97 0.0 0.0 0.00 1.13 0.00 94 1015.5
20260903045014 78 97 0.0 0.0 0.00 1.13 0.00 94 1015.6
20260903044536 78 98 0.0 0.0 0.00 1.13 0.00 94 1015.6
20260903044010 78 99 0.0 0.0 0.00 1.13 0.00 93 1015.6
20260903043514 78 99 0.0 0.0 0.00 1.13 0.00 93 1015.8
20260903043023 78 100 0.0 0.0 0.00 1.13 0.00 93 1015.8
20260903042507 78 100 0.0 0.0 0.00 1.13 0.00 1015.8
20260903042008 78 98 0.0 0.0 0.00 1.13 0.00 93 1015.9
20260903041528 78 98 0.0 0.0 0.00 1.13 0.00 93 1015.9
20260903041012 78 86 0.0 0.0 0.00 1.13 0.00 93 1015.9
20260903040509 78 101 0.0 0.0 0.00 1.13 0.00 93 1015.9
20260903040030 78 104 0.0 0.0 0.00 1.13 0.00 93 1016.0
20260903035512 79 104 0.0 0.0 0.00 1.13 1.13 93 1016.0
20260903035017 79 98 0.0 0.0 0.00 1.13 1.13 93 1016.0
20260903034532 79 100 0.0 1.0 0.00 1.13 1.13 93 1015.9
20260903034015 79 86 0.0 2.0 0.00 1.13 1.13 94 1016.0
20260903033519 79 123 0.0 2.0 0.00 1.13 1.13 1015.8
20260903033031 78 76 0.0 2.0 0.00 1.13 1.13 94 1015.9
20260903032503 78 69 0.0 1.0 0.00 1.13 1.13 94 1015.8
20260903032004 78 63 0.0 0.0 0.00 1.13 1.13 94 1015.9
20260903031520 78 84 0.0 0.0 0.00 1.13 1.13 94 1016.0
20260903031009 78 82 0.0 0.0 0.00 1.13 1.13 94 1015.9
20260903030508 78 38 0.0 0.0 0.00 1.13 1.13 94 1015.9
20260903030007 78 36 0.0 0.0 0.00 1.13 1.13 94 1016.0
20260903025505 78 5 0.0 0.0 0.00 1.13 1.13 94 1016.0
20260903025003 78 5 0.0 0.0 0.00 1.13 1.13 94 1016.2
20260903024509 78 5 0.0 0.0 0.00 1.13 1.13 93 1016.1
20260903024004 78 5 0.0 0.0 0.00 1.13 1.13 93 1016.1
20260903023504 78 5 0.0 0.0 0.00 1.13 1.13 93 1016.1
20260903023006 78 5 0.0 0.0 0.00 1.13 1.13 93 1016.0
20260903022504 78 5 0.0 0.0 0.00 1.13 1.13 93 1016.0
20260903022007 78 5 0.0 0.0 0.00 1.13 1.13 93 1016.1
20260903021508 78 5 0.0 0.0 0.00 1.13 1.13 93 1016.2
20260903021004 78 5 0.0 0.0 0.00 1.13 1.13 93 1016.2
20260903020505 78 5 0.0 0.0 0.00 1.13 1.13 93 1016.1
20260903020028 78 5 0.0 0.0 0.00 1.13 1.13 93 1016.1
20260903015504 78 5 0.0 0.0 0.00 1.13 1.13 93 1016.1
20260903015002 78 33 0.0 0.0 0.00 1.13 1.13 93 1016.0
20260903014506 78 33 0.0 0.0 0.00 1.13 1.13 93 1015.9
20260903014002 78 30 0.0 0.0 0.00 1.13 1.13 93 1015.8
20260903013503 78 30 0.0 1.0 0.00 1.13 1.13 93 1015.6
20260903013010 78 9 0.0 1.0 0.00 1.13 1.13 93 1015.5
20260903012503 78 19 0.0 0.0 0.00 1.13 1.13 93 1015.5
20260903012006 78 10 0.0 0.0 0.00 1.13 1.13 93 1015.5
20260903011514 78 32 0.0 0.0 0.00 1.13 1.13 93 1015.5
20260903011007 78 5 0.0 0.0 0.00 1.13 1.13 93 1015.4
20260903010508 78 28 0.0 0.0 0.00 1.13 1.13 93 1015.3
20260903010010 78 11 0.0 2.0 0.00 1.13 1.13 93 1015.4
20260903005509 78 352 0.0 2.0 0.00 1.13 1.13 92 1015.4
20260903005012 78 340 0.0 1.0 0.00 1.13 1.13 92 1015.3
20260903004513 78 350 0.0 2.0 0.00 1.13 1.13 92 1015.2
20260903004008 78 344 0.0 2.0 0.00 1.13 1.13 92 1015.1
20260903003505 78 9 0.0 2.0 0.00 1.13 1.13 92 1014.9
20260903003010 78 5 0.0 2.0 0.00 1.13 1.13 92 1014.9
20260903002503 78 306 0.0 3.0 0.00 1.13 1.13 92 1014.9
20260903002005 78 327 0.0 3.0 0.01 1.13 1.13 92 1014.9
20260903001520 78 343 0.0 3.0 0.01 1.13 1.13 92 1015.0
20260903001003 78 341 0.0 2.0 0.01 1.13 1.13 1015.2
20260903000507 78 350 0.0 2.0 0.01 1.13 1.13 92 1015.2
20260903000021 78 35 0.0 0.0 0.01 1.13 1.13 92 1015.3
20260902235510 78 262 0.0 0.0 0.01 1.13 1.13 92 1015.3
20260902235002 78 260 0.0 0.0 0.01 1.13 1.13 92 1015.3
20260902234521 78 260 0.0 0.0 0.01 1.13 1.13 92 1015.1
20260902234011 78 260 0.0 1.0 0.01 1.13 1.13 92 1014.9
20260902233503 78 260 0.0 1.0 0.02 1.13 1.13 91 1014.9
20260902233012 78 259 0.0 1.0 0.03 1.13 1.13 92 1014.9
20260902232505 78 283 0.0 1.0 0.03 1.13 1.13 91 1015.0
20260902232004 78 265 0.0 1.0 0.02 1.12 1.12 91 1015.0
20260902231516 78 300 0.0 1.0 0.03 1.12 1.12 91 1015.1
20260902231005 78 239 0.0 1.0 0.04 1.12 1.12 91 1015.2
20260902230505 78 236 0.0 2.0 0.05 1.12 1.12 91 1015.1
20260902230013 78 238 0.0 3.0 0.06 1.12 1.12 91 1015.1
20260902225506 78 208 0.0 3.0 0.07 1.12 1.12 91 1015.0
20260902225012 78 188 0.0 1.0 0.08 1.12 1.12 91 1015.1
20260902224522 78 309 0.0 0.0 0.08 1.12 1.12 91 1015.0
20260902224003 78 311 0.0 0.0 0.08 1.12 1.12 90 1015.0
20260902223507 78 311 0.0 0.0 0.08 1.11 1.11 90 1015.0
20260902223030 78 311 0.0 0.0 0.07 1.10 1.10 90 1015.0
20260902222513 78 229 0.0 1.0 0.07 1.10 1.10 90 1015.1
20260902222004 78 229 0.0 2.0 0.09 1.10 1.10 90 1015.1
20260902221524 78 225 0.0 3.0 0.14 1.09 1.09 89 1015.1
20260902221003 78 217 0.0 3.0 0.26 1.08 1.08 90 1015.1
20260902220506 78 226 0.0 1.0 0.49 1.07 1.07 90 1014.8